Hanford, CA

1:17 PM PDT on September 25, 2016 (GMT -0700)
Hanford Municipal

Weather History for KHJO - March, 2013

Change the Weather History Date:

Tuesday, March 12, 2013

  Actual Average Record
Temperature  
Mean Temperature 59 °F 55 °F  
Max Temperature 78 °F 68 °F 84 °F (2007)
Min Temperature 40 °F 43 °F 34 °F (2006)
Degree Days  
Heating Degree Days 6    
Month to date heating degree days 115  
Since 1 July heating degree days 2176  
Cooling Degree Days 0    
Month to date cooling degree days 0  
Year to date cooling degree days 0  
Growing Degree Days 8 (Base 50)    
Moisture  
Dew Point 45 °F    
Average Humidity 67    
Maximum Humidity 100    
Minimum Humidity 33    
Precipitation  
Precipitation 0.00 in 0.06 in 0.04 in (2010)
Month to date precipitation 0.49 0.84  
Year to date precipitation 1.16 4.61  
Since 1 July precipitation 3.16  
Snow  
Snow 0.00 in - - ()
Month to date snowfall 0.0  
Since 1 July snowfall 0.0  
Snow Depth 0.00 in    
Sea Level Pressure  
Sea Level Pressure 30.13 in    
Wind  
Wind Speed 2 mph (SSE)    
Max Wind Speed 7 mph    
Max Gust Speed -    
Visibility 4 miles    
Events Fog    
T = Trace of Precipitation, MM = Missing Value Source: NWS Daily Summary

Daily Weather History Graph

Daily Weather History Graph

Search for Another Location

Airport or City:

Trip Planner

Search our weather history database for the weather conditions in past years. The results will help you decide how hot, cold, wet, or windy it might be!

Date:

Astronomy

Mar. 12, 2013 Rise Set
Actual Time 7:13 AM PDT 7:03 PM PDT
Civil Twilight 6:47 AM PDT 7:29 PM PDT
Nautical Twilight 6:17 AM PDT 7:59 PM PDT
Astronomical Twilight 5:47 AM PDT 8:29 PM PDT
Moon 7:25 AM PDT (3/12) 8:20 PM PDT (3/12)
Length of Visible Light 12h 41m
Length of Day
11h 50m
New Moon, 1% of the Moon is Illuminated
Mar 12
New Moon
Mar 19
First Quarter
Mar 27
Full
Apr 2
Last Quarter
Apr 10
New

Hourly Weather History & Observations

Time (PDT) Temp. Windchill Dew Point Humidity Pressure Visibility Wind Dir Wind Speed Gust Speed Precip Events Conditions
12:53 AM 46.9 °F - 45.0 °F 93% 30.14 in 3.0 mi SE 3.5 mph - N/A   Clear
1:11 AM 44.6 °F 42.2 °F 42.8 °F 93% 30.14 in 2.5 mi SE 4.6 mph - N/A   Clear
1:40 AM 48.2 °F - 44.6 °F 87% 30.14 in 3.0 mi ESE 5.8 mph - N/A   Clear
1:53 AM 46.9 °F - 45.0 °F 93% 30.15 in 3.0 mi ESE 5.8 mph - N/A   Clear
2:53 AM 46.0 °F 44.8 °F 44.1 °F 93% 30.14 in 4.0 mi ESE 3.5 mph - N/A   Clear
3:53 AM 45.0 °F 43.5 °F 43.0 °F 93% 30.13 in 1.8 mi NE 3.5 mph - N/A   Clear
4:22 AM 44.6 °F - 44.6 °F 100% 30.12 in 0.5 mi Calm Calm - N/A Fog Fog
4:36 AM 42.8 °F - 41.0 °F 93% 30.12 in 0.2 mi Calm Calm - N/A Fog Fog
4:53 AM 44.1 °F - 43.0 °F 96% 30.13 in 0.2 mi Calm Calm - N/A Fog Fog
5:02 AM 44.6 °F - 42.8 °F 93% 30.13 in 0.5 mi Calm Calm - N/A Fog Fog
5:53 AM 41.0 °F - 39.9 °F 96% 30.13 in 0.2 mi Calm Calm - N/A Fog Fog
6:21 AM 39.2 °F - 39.2 °F 100% 30.12 in 0.2 mi Calm Calm - N/A Fog Fog
6:53 AM 42.1 °F - 39.9 °F 92% 30.14 in 0.2 mi Calm Calm - N/A Fog Fog
7:24 AM 42.8 °F - 41.0 °F 93% 30.13 in 0.5 mi Calm Calm - N/A Fog Fog
7:42 AM 42.8 °F - 41.0 °F 93% 30.14 in 1.5 mi Calm Calm - N/A   Scattered Clouds
7:50 AM 42.8 °F - 42.8 °F 100% 30.14 in 2.5 mi Calm Calm - N/A   Scattered Clouds
7:53 AM 42.1 °F - 42.1 °F 100% 30.15 in 3.0 mi Calm Calm - N/A   Partly Cloudy
8:10 AM 44.6 °F - 44.6 °F 100% 30.15 in 1.8 mi Calm Calm - N/A   Clear
8:41 AM 50.0 °F - 48.2 °F 94% 30.15 in 3.0 mi Calm Calm - N/A   Clear
8:53 AM 51.1 °F - 46.9 °F 86% 30.17 in 5.0 mi Calm Calm - N/A   Clear
9:53 AM 57.0 °F - 48.9 °F 74% 30.17 in 6.0 mi Calm Calm - N/A   Haze
10:53 AM 63.0 °F - 50.0 °F 63% 30.17 in 7.0 mi Calm Calm - N/A   Clear
11:53 AM 66.0 °F - 48.9 °F 54% 30.16 in 8.0 mi Calm Calm - N/A   Clear
12:53 PM 68.0 °F - 50.0 °F 52% 30.14 in 7.0 mi South 3.5 mph - N/A   Clear
1:53 PM 71.1 °F - 50.0 °F 47% 30.11 in 7.0 mi Variable 4.6 mph - N/A   Clear
2:53 PM 73.0 °F - 50.0 °F 44% 30.09 in 7.0 mi Variable 3.5 mph - N/A   Clear
3:53 PM 75.0 °F - 50.0 °F 41% 30.08 in 7.0 mi Variable 4.6 mph - N/A   Clear
4:53 PM 77.0 °F - 46.0 °F 33% 30.06 in 10.0 mi Variable 4.6 mph - N/A   Clear
5:53 PM 75.0 °F - 45.0 °F 34% 30.06 in 10.0 mi NW 5.8 mph - N/A   Clear
6:53 PM 73.0 °F - 46.0 °F 38% 30.07 in 9.0 mi Calm Calm - N/A   Clear
7:53 PM 62.1 °F - 48.0 °F 60% 30.09 in 9.0 mi West 3.5 mph - N/A   Clear
8:53 PM 60.1 °F - 48.0 °F 64% 30.11 in 9.0 mi West 3.5 mph - N/A   Clear
9:53 PM 57.0 °F - 48.0 °F 72% 30.14 in 9.0 mi Calm Calm - N/A   Clear
10:53 PM 53.1 °F - 46.9 °F 80% 30.15 in 7.0 mi South 4.6 mph - N/A   Clear